FW9540 Weather Reports


time (UTC)temp
F
wind
direction
speed
knots
gust
knots
rain 1hr
in
rain 24hr
in
rain mn
in
humidity
%
barometer
mb
20260906090449 79 194 0.0 0.9 0.00 0.00 0.00 66 1021.8
20260906085947 78 194 0.0 1.7 0.00 0.00 0.00 66 1021.8
20260906085419 77 194 0.9 3.5 0.00 0.00 0.00 67 1021.9
20260906084924 77 188 0.0 3.5 0.00 0.00 0.00 67 1021.9
20260906084416 77 178 0.9 3.5 0.00 0.00 0.00 67 1021.9
20260906083352 77 188 0.0 2.6 0.00 0.00 0.00 68 1021.9
20260906082848 76 188 0.0 0.9 0.00 0.00 0.00 69 1022.0
20260906082325 76 188 0.0 1.7 0.00 0.00 0.00 69 1022.0
20260906081758 75 188 0.0 2.6 0.00 0.00 0.00 69 1022.1
20260906081232 75 188 0.0 2.6 0.00 0.00 0.00 69 1022.1
20260906080732 75 85 0.0 0.0 0.00 0.00 0.00 70 1022.0
20260906080229 74 85 0.0 0.0 0.00 0.00 0.00 71 1022.0
20260906075707 74 83 0.0 0.9 0.00 0.00 0.00 72 1022.1
20260906074150 73 84 0.0 1.7 0.00 0.00 0.00 72 1022.1
20260906073118 72 192 0.0 0.0 0.00 0.00 0.00 74 1022.1
20260906072557 71 221 0.0 0.9 0.00 0.00 0.00 74 1022.1
20260906072026 71 221 0.0 0.9 0.00 0.00 0.00 76 1022.1
20260906071023 70 221 0.0 1.7 0.00 0.00 0.00 80 1022.1
20260906070522 70 221 0.0 0.0 0.00 0.00 0.00 81 1022.0
20260906065452 69 221 0.0 0.0 0.00 0.00 0.00 81 1022.0
20260906064428 69 221 0.0 0.0 0.00 0.00 0.00 82 1021.9
20260906063907 69 221 0.0 0.0 0.00 0.00 0.00 83 1021.9
20260906063407 68 221 0.0 0.0 0.00 0.00 0.00 85 1021.9
20260906062312 67 221 0.0 0.0 0.00 0.00 0.00 87 1021.9
20260906061247 66 221 0.0 0.0 0.00 0.00 0.00 89 1021.8
20260906060722 66 221 0.0 0.0 0.00 0.00 0.00 90 1021.8
20260906060201 65 221 0.0 0.0 0.00 0.00 0.00 91 1021.7
20260906055701 65 221 0.0 0.9 0.00 0.00 0.00 92 1021.7
20260906055138 65 221 0.0 0.9 0.00 0.00 0.00 92 1021.5
20260906054636 64 221 0.0 0.0 0.00 0.00 0.00 92 1021.5
20260906054117 64 221 0.0 0.0 0.00 0.00 0.00 93 1021.4
20260906053616 63 221 0.0 0.0 0.00 0.00 0.00 93 1021.4
20260906053100 63 221 0.0 0.0 0.00 0.00 0.00 93 1021.3
20260906052559 63 221 0.0 0.0 0.00 0.00 0.00 93 1021.2
20260906050542 62 221 0.0 0.0 0.00 0.00 0.00 92 1021.1
20260906050014 62 221 0.0 0.0 0.00 0.00 0.00 92 1021.0
20260906045516 62 221 0.0 0.0 0.00 0.00 0.00 92 1021.0
20260906044000 62 221 0.0 0.0 0.00 0.00 0.00 92 1020.8
20260906043503 62 221 0.0 0.0 0.00 0.00 0.00 92 1020.9
20260906042940 62 221 0.0 0.0 0.00 0.00 0.00 92 1020.8
20260906041920 62 221 0.0 0.0 0.00 0.00 0.00 92 1020.7
20260906041418 62 221 0.0 0.0 0.00 0.00 0.00 92 1020.7
20260906040918 62 221 0.0 0.0 0.00 0.00 0.00 92 1020.6
20260906040347 62 221 0.0 0.0 0.00 0.00 0.00 91 1020.5
20260906035847 63 221 0.0 0.0 0.00 0.00 0.00 92 1020.5
20260906035349 63 221 0.0 0.0 0.00 0.00 0.00 91 1020.5
20260906034846 63 221 0.0 0.0 0.00 0.00 0.00 91 1020.5
20260906034343 63 221 0.0 0.0 0.00 0.00 0.00 91 1020.3
20260906033822 63 221 0.0 0.0 0.00 0.00 0.00 91 1020.2
20260906033323 63 221 0.0 0.0 0.00 0.00 0.00 92 1020.2
20260906032240 63 221 0.0 0.0 0.00 0.00 0.00 91 1020.1
20260906031710 63 221 0.0 0.0 0.00 0.00 0.00 91 1020.2
20260906031213 63 221 0.0 0.0 0.00 0.00 0.00 91 1020.2
20260906030646 63 221 0.0 0.0 0.00 0.00 0.00 91 1020.1
20260906030127 63 221 0.0 0.0 0.00 0.00 0.00 91 1020.1
20260906025623 64 221 0.0 0.0 0.00 0.00 0.00 91 1020.0
20260906025103 64 221 0.0 0.0 0.00 0.00 0.00 91 1020.1
20260906024548 64 221 0.0 0.0 0.00 0.00 0.00 91 1020.0
20260906023501 64 221 0.0 0.0 0.00 0.00 0.00 91 1019.9
20260906023001 64 221 0.0 0.0 0.00 0.00 0.00 91 1019.8
20260906022452 64 221 0.0 0.0 0.00 0.00 0.00 91 1019.8
20260906021921 64 221 0.0 0.0 0.00 0.00 0.00 91 1019.8
20260906021422 64 221 0.0 0.0 0.00 0.00 0.00 91 1019.8
20260906020420 64 221 0.0 0.0 0.00 0.00 0.00 90 1019.7
20260906015858 64 221 0.0 0.0 0.00 0.00 0.00 90 1019.7
20260906015358 65 221 0.0 0.0 0.00 0.00 0.00 90 1019.7
20260906014829 65 221 0.0 0.0 0.00 0.00 0.00 91 1019.6
20260906014311 65 221 0.0 0.0 0.00 0.00 0.00 90 1019.6
20260906013749 65 221 0.0 0.0 0.00 0.00 0.00 90 1019.6
20260906013251 65 221 0.0 0.0 0.00 0.00 0.00 90 1019.6
20260906012735 65 221 0.0 0.0 0.00 0.00 0.00 90 1019.6
20260906012233 65 221 0.0 0.0 0.00 0.00 0.00 90 1019.5
20260906011709 65 221 0.0 0.0 0.00 0.00 0.00 90 1019.5
20260906011207 65 221 0.0 0.0 0.00 0.00 0.00 90 1019.6
20260906010204 65 221 0.0 0.0 0.00 0.00 0.00 90 1019.5
20260906005701 65 221 0.0 0.0 0.00 0.00 0.00 89 1019.4
20260906005201 66 221 0.0 0.0 0.00 0.00 0.00 89 1019.4
20260906004657 66 221 0.0 0.0 0.00 0.00 0.00 89 1019.4
20260906003116 66 221 0.0 0.0 0.00 0.00 0.00 89 1019.3
20260906002554 66 221 0.0 0.0 0.00 0.00 0.00 89 1019.3
20260906002032 66 221 0.0 0.0 0.00 0.00 0.00 89 1019.3
20260906001514 67 221 0.0 0.0 0.00 0.00 0.00 89 1019.3
20260906001012 67 221 0.0 0.0 0.00 0.00 0.00 89 1019.4
20260906000511 67 221 0.0 0.0 0.00 0.00 0.00 88 1019.3
20260906000008 67 221 0.0 0.0 0.00 0.00 0.00 88 1019.3
20260905235507 67 221 0.0 0.0 0.00 0.00 0.00 88 1019.3
20260905234948 67 221 0.0 0.0 0.00 0.00 0.00 88 1019.3
20260905234421 67 221 0.0 0.0 0.00 0.00 0.00 88 1019.2
20260905233857 67 221 0.0 0.0 0.00 0.00 0.00 88 1019.2
20260905233333 67 221 0.0 0.0 0.00 0.00 0.00 88 1019.2
20260905232817 67 221 0.0 0.0 0.00 0.00 0.00 88 1019.2
20260905232255 68 221 0.0 0.0 0.00 0.00 0.00 87 1019.1
20260905231734 68 221 0.0 0.0 0.00 0.00 0.00 87 1019.0
20260905231212 68 221 0.0 0.0 0.00 0.00 0.00 87 1019.1
20260905230645 68 221 0.0 0.0 0.00 0.00 0.00 87 1019.0
20260905230127 68 221 0.0 0.0 0.00 0.00 0.00 87 1019.0
20260905225626 69 221 0.0 0.0 0.00 0.00 0.00 86 1019.0
20260905225128 69 221 0.0 0.0 0.00 0.00 0.00 86 1018.9
20260905224604 69 221 0.0 0.0 0.00 0.00 0.00 85 1018.9
20260905224044 69 221 0.0 0.0 0.00 0.00 0.00 86 1018.8
20260905223536 69 221 0.0 0.0 0.00 0.00 0.00 86 1018.8
20260905222535 70 221 0.0 0.0 0.00 0.00 0.00 85 1018.7
20260905222025 70 221 0.0 0.0 0.00 0.00 0.00 85 1018.6
20260905221512 70 221 0.0 0.0 0.00 0.00 0.00 86 1018.6
20260905220425 69 221 0.0 0.0 0.00 0.00 0.00 86 1018.5
20260905215346 69 221 0.0 0.0 0.00 0.00 0.00 86 1018.5
20260905214844 69 221 0.0 0.0 0.00 0.00 0.00 86 1018.4
20260905214316 70 221 0.0 0.0 0.00 0.00 0.00 85 1018.3
20260905213814 70 221 0.0 0.0 0.00 0.00 0.00 85 1018.2
20260905213304 70 221 0.0 0.0 0.00 0.00 0.00 85 1018.1
20260905212804 70 221 0.0 0.0 0.00 0.00 0.00 85 1018.0
20260905212237 70 221 0.0 0.0 0.00 0.00 0.00 84 1018.0
20260905211734 70 221 0.0 0.0 0.00 0.00 0.00 84 1018.1
20260905211211 71 221 0.0 0.0 0.00 0.00 0.00 84 1018.1
20260905210714 71 221 0.0 0.0 0.00 0.00 0.00 84 1018.0
20260905210134 71 221 0.0 0.0 0.00 0.00 0.00 83 1018.0
20260905204538 71 221 0.0 0.0 0.00 0.00 0.00 83 1017.9
20260905203528 71 221 0.0 0.0 0.00 0.00 0.00 83 1017.9
20260905203022 71 221 0.0 0.0 0.00 0.00 0.00 83 1017.9
20260905202519 71 221 0.0 0.0 0.00 0.00 0.00 83 1017.8
20260905202015 71 221 0.0 0.0 0.00 0.00 0.00 83 1017.8
20260905201441 71 221 0.0 0.0 0.00 0.00 0.00 83 1017.7
20260905200934 71 221 0.0 0.0 0.00 0.00 0.00 83 1017.6
20260905200433 71 221 0.0 0.0 0.00 0.00 0.00 82 1017.7
20260905195904 72 221 0.0 0.0 0.00 0.00 0.00 82 1017.6
20260905195401 72 221 0.0 0.0 0.00 0.00 0.00 82 1017.5
20260905194835 72 221 0.0 0.0 0.00 0.00 0.00 82 1017.4
20260905194332 72 221 0.0 0.0 0.00 0.00 0.00 81 1017.3
20260905193804 73 221 0.0 0.0 0.00 0.00 0.00 81 1017.2
20260905193306 73 221 0.0 0.0 0.00 0.00 0.00 81 1017.1
20260905192215 73 221 0.0 0.0 0.00 0.00 0.00 80 1016.9
20260905191201 74 221 0.0 0.0 0.00 0.00 0.00 79 1016.8
20260905190140 74 221 0.0 0.0 0.00 0.00 0.00 79 1016.6
20260905185640 74 221 0.0 0.0 0.00 0.00 0.00 79 1016.6
20260905185143 74 221 0.0 0.0 0.00 0.00 0.00 79 1016.5
20260905184614 75 221 0.0 0.0 0.00 0.00 0.00 79 1016.4
20260905183547 75 221 0.0 0.0 0.00 0.00 0.00 78 1016.4
20260905183018 75 221 0.0 0.0 0.00 0.00 0.00 78 1016.3
20260905181948 76 221 0.0 0.0 0.00 0.00 0.00 78 1016.1
20260905181453 76 221 0.0 0.0 0.00 0.00 0.00 77 1016.0
20260905180415 76 221 0.0 0.0 0.00 0.00 0.00 77 1015.8
20260905175411 77 221 0.0 0.0 0.00 0.00 0.00 76 1015.6
20260905174838 77 221 0.0 0.0 0.00 0.00 0.00 75 1015.5
20260905174338 78 221 0.0 0.0 0.00 0.00 0.00 75 1015.4
20260905173840 79 221 0.0 0.0 0.00 0.00 0.00 75 1015.4
20260905172819 80 221 0.0 0.0 0.00 0.00 0.00 72 1015.3
20260905172257 81 221 0.0 0.0 0.00 0.00 0.00 71 1015.1
20260905171728 82 221 0.0 0.0 0.00 0.00 0.00 69 1015.1
20260905171224 83 221 0.0 0.0 0.00 0.00 0.00 69 1015.0
20260905170704 83 221 0.0 0.0 0.00 0.00 0.00 67 1014.9
20260905170132 84 221 0.0 0.0 0.00 0.00 0.00 66 1014.9
20260905165100 85 221 0.0 0.0 0.00 0.00 0.00 64 1014.9
20260905164557 85 221 0.0 0.0 0.00 0.00 0.00 65 1014.8
20260905164050 85 221 0.0 0.0 0.00 0.00 0.00 64 1014.7
20260905163547 85 220 0.0 0.0 0.00 0.00 0.00 65 1014.7
20260905163020 85 220 0.0 4.3 0.00 0.00 0.00 65 1014.6
20260905161950 86 243 1.7 7.0 0.00 0.00 0.00 62 1014.5
20260905160922 87 246 1.7 4.3 0.00 0.00 0.00 62 1014.4
20260905160420 87 238 0.9 4.3 0.00 0.00 0.00 61 1014.3
20260905155348 89 267 0.0 1.7 0.00 0.00 0.00 59 1014.2
20260905154843 90 295 0.0 0.9 0.00 0.00 0.00 57 1014.3
20260905154342 90 5 0.0 0.0 0.00 0.00 0.00 57 1014.2
20260905153809 90 5 0.0 0.0 0.00 0.00 0.00 56 1014.2
20260905152744 89 15 0.0 0.0 0.00 0.00 0.00 59 1014.1
20260905152215 89 15 0.0 0.0 0.00 0.00 0.00 58 1014.1
20260905151650 89 15 0.0 0.0 0.00 0.00 0.00 57 1014.1
20260905151143 89 15 0.0 0.9 0.00 0.00 0.00 57 1014.0
20260905150614 89 15 0.0 1.7 0.00 0.00 0.00 57 1014.0
20260905150044 89 343 0.0 2.6 0.00 0.00 0.00 60 1014.0
20260905145541 89 23 0.0 2.6 0.00 0.00 0.00 60 1014.0
20260905145036 89 40 0.0 1.7 0.00 0.00 0.00 59 1014.0
20260905144533 89 30 0.0 2.6 0.00 0.00 0.00 58 1014.0
20260905144010 89 355 0.0 2.6 0.00 0.00 0.00 60 1014.0
20260905142932 88 40 0.9 2.6 0.00 0.00 0.00 59 1014.1
20260905141355 88 37 0.9 3.5 0.00 0.00 0.00 60 1014.1
20260905140828 89 39 1.7 5.2 0.00 0.00 0.00 58 1014.1
20260905140326 89 57 2.6 5.2 0.00 0.00 0.00 58 1014.2
20260905135822 89 69 2.6 4.3 0.00 0.00 0.00 58 1014.2
20260905135320 90 69 1.7 3.5 0.00 0.00 0.00 57 1014.2
20260905134758 89 61 1.7 4.3 0.00 0.00 0.00 60 1014.2
20260905134254 89 194 1.7 3.5 0.00 0.00 0.00 58 1014.4
20260905133753 89 194 0.9 4.3 0.00 0.00 0.00 58 1014.4
20260905133253 89 182 0.9 4.3 0.00 0.00 0.00 57 1014.4
20260905132228 89 77 0.0 0.9 0.00 0.00 0.00 58 1014.4
20260905131700 89 78 0.0 1.7 0.00 0.00 0.00 60 1014.4
20260905131138 89 72 0.0 1.7 0.00 0.00 0.00 59 1014.4
20260905130631 89 98 0.0 2.6 0.00 0.00 0.00 61 1014.5
20260905130126 88 138 0.0 2.6 0.00 0.00 0.00 58 1014.5
20260905125626 88 65 0.0 2.6 0.00 0.00 0.00 60 1014.6
20260905124553 88 160 0.0 1.7 0.00 0.00 0.00 59 1014.7
20260905124051 88 163 0.0 1.7 0.00 0.00 0.00 58 1014.7
20260905123521 87 167 0.0 0.0 0.00 0.00 0.00 61 1014.8
20260905122451 87 171 0.0 0.9 0.00 0.00 0.00 59 1015.0
20260905121922 87 171 0.0 0.9 0.00 0.00 0.00 61 1015.0
20260905121421 87 169 0.0 0.9 0.00 0.00 0.00 60 1015.1
20260905120853 87 175 0.0 0.0 0.00 0.00 0.00 60 1015.1
20260905115826 86 175 0.0 3.5 0.00 0.00 0.00 59 1015.1
20260905114754 86 70 0.0 0.9 0.00 0.00 0.00 60 1015.2
20260905113726 85 70 0.9 2.6 0.00 0.00 0.00 58 1015.3
20260905113155 85 69 0.0 3.5 0.00 0.00 0.00 62 1015.2
20260905112150 85 58 0.9 3.5 0.00 0.00 0.00 62 1015.3
20260905111126 84 63 0.0 1.7 0.00 0.00 0.00 63 1015.3
20260905110606 84 42 0.0 1.7 0.00 0.00 0.00 66 1015.4
20260905110106 84 355 0.0 0.0 0.00 0.00 0.00 64 1015.5
20260905105602 83 355 0.0 0.0 0.00 0.00 0.00 65 1015.6
20260905105103 83 25 0.0 0.0 0.00 0.00 0.00 68 1015.6
20260905104538 83 26 0.0 0.0 0.00 0.00 0.00 66 1015.6
20260905104036 82 26 0.0 0.9 0.00 0.00 0.00 67 1015.7
20260905103506 82 26 0.0 0.9 0.00 0.00 0.00 67 1015.6
20260905103003 82 26 0.0 1.7 0.00 0.00 0.00 68 1015.6
20260905102436 82 355 0.0 1.7 0.00 0.00 0.00 68 1015.7
20260905101935 81 128 0.0 1.7 0.00 0.00 0.00 68 1015.6
20260905101406 81 128 0.0 1.7 0.00 0.00 0.00 69 1015.7
20260905100904 82 128 0.0 1.7 0.00 0.00 0.00 68 1015.7
20260905100339 82 122 0.0 1.7 0.00 0.00 0.00 68 1015.7
20260905095813 81 62 0.0 0.9 0.00 0.00 0.00 70 1015.9
20260905095310 81 62 0.0 0.9 0.00 0.00 0.00 70 1015.8
20260905094752 80 62 0.0 1.7 0.00 0.00 0.00 71 1015.9
20260905094253 80 62 0.0 1.7 0.00 0.00 0.00 71 1016.0
20260905093748 79 41 0.0 0.9 0.00 0.00 0.00 72 1016.0
20260905093250 79 41 0.0 0.9 0.00 0.00 0.00 74 1016.1
20260905092224 77 21 0.0 0.0 0.00 0.00 0.00 75 1016.2
20260905091654 77 21 0.0 0.9 0.00 0.00 0.00 74 1016.2
20260905091126 77 21 0.0 0.9 0.00 0.00 0.00 75 1016.1